Regional Weather Roundup
Issued by NWS Portland, ME

Home | Current Version | Previous Version | Text Only | Print | Product List | Glossary On
Versions: 1 2 3 4 5 6 7 8 9 10 11 12 13 14 15 16 17 18 19 20 21 22 23 24 25 26 27 28 29 30 31 32 33 34 35 36 37 38 39 40 41 42 43 44 45 46 47 48 49 50
000
ASUS41 KGYX 310405
RWRGYX
WEATHER ROUNDUP FOR MAINE AND NEW HAMPSHIRE
NATIONAL WEATHER SERVICE GRAY ME
1200 AM EDT SUN AUG 31 2014

MEZ002-005-006-010-012-015-018-020-021-024-026-027-029-310500-
MAINE

CITY           SKY/WX    TMP DP  RH WIND       PRES   REMARKS
PORTLAND       PTCLDY    65  59  81 S7        30.09F
SANFORD        PTCLDY    61  55  82 S5        30.11S
BAR HARBOR     PTCLDY    61  59  94 S9        30.11F
WISCASSET      CLEAR     66  60  81 SW10G16   30.11F
ROCKLAND       PTCLDY    63  61  94 SW10      30.10S
FRYEBURG       PTCLDY    62  58  86 CALM      30.08F
LEWISTONAUBURN CLEAR     59  55  88 S3        30.08F
AUGUSTA        CLEAR     61  59  93 S8        30.09F
WATERVILLE     CLEAR     57  55  94 S3        30.04F
BANGOR         CLEAR     60  55  83 S6        30.08F
GREENVILLE       N/A     56  54  93 CALM      30.04F
MILLINOCKET    CLEAR     61  54  77 S3        30.05F
HOULTON        PTCLDY    60  52  74 SW8       30.03S
PRESQUE ISLE   CLOUDY    64  54  68 S10       29.98F
FRENCHVILLE    CLOUDY    63  57  81 S8        29.96S
CARIBOU        CLOUDY    63  56  78 S7        29.98S
$$

NHZ002-005-008-009-011-012-014-310500-
NEW HAMPSHIRE

CITY           SKY/WX    TMP DP  RH WIND       PRES   REMARKS
PORTSMOUTH     MOCLDY    65  59  81 S5        30.10F
ROCHESTER      PTCLDY    64  58  80 VRB5      30.10F
NASHUA         PTCLDY    66  61  84 CALM      30.13F
MANCHESTER     MOCLDY    67  60  78 S8        30.10F
CONCORD        PTCLDY    64  59  83 S6        30.10F
LACONIA        PTCLDY    66  57  72 S10       30.08F
PLYMOUTH       FAIR      58  58 100 CALM      30.09F FOG
BERLIN         PTCLDY    56  54  93 CALM      30.08F
WHITEFIELD     MOCLDY    56  53  90 CALM      30.08F
JAFFREY        CLOUDY    65  60  84 SW9       30.14F
LEBANON        PTCLDY    67  58  72 S8        30.08F
MT WASHINGTON  NOT AVBL
$$

VTZ005-007-008-310500-
VERMONT

CITY           SKY/WX    TMP DP  RH WIND       PRES   REMARKS
ST JOHNSBURY     N/A     67  59  75 MISG      30.05S
MONTPELIER     PTCLDY    65  59  81 S7        30.11S
BURLINGTON     CLOUDY    72  59  63 S18G28    30.00F
$$

MAZ007-012-024-CTZ003-RIZ002-NYZ038-NYZ072-310500-
SOUTHERN NEW ENGLAND AND NY

CITY           SKY/WX    TMP DP  RH WIND       PRES   REMARKS
BOSTON         PTCLDY    67  60  78 S13       30.14F
WORCESTER      MOCLDY    63  61  93 SW14G21   30.15F
NANTUCKET      CLEAR     66  63  90 S9        30.19F
PROVIDENCE     PTCLDY    64  61  90 S5        30.17F
HARTFORD       CLOUDY    71  63  75 S12       30.13F
ALBANY         MOCLDY    70  61  73 S8        30.09F
NEW YORK CITY  MOCLDY    74  65  73 SW8       30.15F
$$

ANZ081-ANZ082-ANZ150-NHZ014-MEZ023>029-310500-
COASTAL MARINE OBSERVATIONS

STATION/POSITION TIME  TEMP    WIND        PRES    WAVE
                       AIR SEA DIR/SP/G            HT/PER
                 (UTC) (F)     (DEG/KT/KT) (MB)    (FT/S)
MATINICUS ROCK   0300          200/ 20/ 21 1019.6F
PORTLAND WX BUOY 0350   64 60  200/ 17/ 21 1018.7F   4/ 6
WELLS            0300   65 65  220/  8/ 10 1018.7F
ISLE OF SHOALS   0300   66     200/ 18/ 20 1019.6F
JEFFREYS LEDGE   0321      64                N/A     5/ 5
CASHES LEDGE BUO 0350   66 65              1019.7F   5/ 6
$$

.............KEY..............
   WCI - WIND CHILL
   TC  - TEMPERATURE IN CELSIUS
   VSB - VISIBILITY IN MILES
   HX  - HEAT INDEX
   FAIR- INDICATES FEW OR NO CLOUDS BELOW 12,000 FT, WITH NO
         SIGNIFICANT WEATHER AND/OR OBSTRUCTIONS TO VISIBILITY.




USA.gov is the U.S. government's official web portal to all federal, state and local government web resources and services.